Clinton-Sherman, OK

7:14 PM CST on January 20, 2018 (GMT -0600)
Clinton-Sherman

Weather History for KCSM - January, 2013

Change the Weather History Date:

Tuesday, January 8, 2013

  Actual Average Record
Temperature  
Mean Temperature 40 °F -  
Max Temperature 50 °F 46 °F 75 °F (2002)
Min Temperature 30 °F 27 °F 12 °F (2015)
Degree Days  
Heating Degree Days 25    
Moisture  
Dew Point 32 °F    
Average Humidity 74    
Maximum Humidity 92    
Minimum Humidity 52    
Precipitation  
Precipitation 0.00 in - - ()
Sea Level Pressure  
Sea Level Pressure 30.07 in    
Wind  
Wind Speed 12 mph (South)    
Max Wind Speed 17 mph    
Max Gust Speed -    
Visibility 10 miles    
Events      
Averages and records for this station are not official NWS values.
T = Trace of Precipitation, MM = Missing Value Source: NWS Daily Summary

Daily Weather History Graph

Daily Weather History Graph

Search for Another Location

Airport or City:

Trip Planner

Search our weather history database for the weather conditions in past years. The results will help you decide how hot, cold, wet, or windy it might be!

Date:

Astronomy

Jan. 08, 2013 Rise Set
Actual Time 7:46 AM CST 5:41 PM CST
Civil Twilight 7:18 AM CST 6:09 PM CST
Nautical Twilight 6:46 AM CST 6:40 PM CST
Astronomical Twilight 6:16 AM CST 7:11 PM CST
Moon 4:21 AM CST (1/8) 2:44 PM CST (1/8)
Length of Visible Light 10h 51m
Length of Day
9h 55m
Waning Crescent, 13% of the Moon is Illuminated
Jan 8
Waning Crescent
Jan 11
New
Jan 18
First Quarter
Jan 26
Full
Feb 3
Last Quarter

Hourly Weather History & Observations

Time (CST) Temp. Windchill Dew Point Humidity Pressure Visibility Wind Dir Wind Speed Gust Speed Precip Events Conditions
12:53 AM 34.0 °F 24.6 °F 26.1 °F 73% 30.04 in 10.0 mi South 13.8 mph - N/A   Clear
1:53 AM 34.0 °F 25.0 °F 28.0 °F 79% 30.04 in 10.0 mi South 12.7 mph - N/A   Clear
2:53 AM 34.0 °F 24.2 °F 28.0 °F 79% 30.03 in 10.0 mi South 15.0 mph - N/A   Clear
3:53 AM 34.0 °F 23.8 °F 28.0 °F 79% 30.02 in 10.0 mi South 16.1 mph - N/A   Clear
4:53 AM 34.0 °F 24.6 °F 28.0 °F 79% 30.01 in 10.0 mi South 13.8 mph - N/A   Clear
6:53 AM 30.0 °F 21.7 °F 27.0 °F 88% 30.06 in 10.0 mi South 9.2 mph - N/A   Clear
8:53 AM 33.1 °F 28.7 °F 30.0 °F 89% 30.06 in 9.0 mi SSW 4.6 mph - N/A   Clear
9:53 AM 39.9 °F 31.4 °F 32.0 °F 73% 30.07 in 10.0 mi South 16.1 mph - N/A   Clear
10:53 AM 43.0 °F 36.4 °F 33.1 °F 68% 30.06 in 10.0 mi South 12.7 mph - N/A   Clear
11:53 AM 46.0 °F 39.0 °F 33.1 °F 61% 30.03 in 10.0 mi South 17.3 mph - N/A   Overcast
1:53 PM 48.9 °F - 33.1 °F 54% 30.00 in 10.0 mi South 15.0 mph - N/A   Overcast
2:53 PM 48.9 °F - 33.1 °F 54% 30.02 in 10.0 mi South 13.8 mph - N/A   Overcast
3:53 PM 50.0 °F - 33.1 °F 52% 30.04 in 10.0 mi South 11.5 mph - N/A   Overcast
4:53 PM 50.0 °F - 34.0 °F 54% 30.04 in 10.0 mi SSE 11.5 mph - N/A   Overcast
6:53 PM 46.9 °F - 37.9 °F 71% 30.08 in 10.0 mi South 8.1 mph - N/A   Overcast
7:53 PM 43.0 °F - 37.0 °F 80% 30.11 in 10.0 mi Calm Calm - N/A   Clear
8:53 PM 37.0 °F 31.0 °F 34.0 °F 89% 30.14 in 9.0 mi NW 8.1 mph - N/A   Clear
9:53 PM 35.1 °F 29.3 °F 33.1 °F 92% 30.14 in 8.0 mi NW 6.9 mph - N/A   Clear
10:53 PM 37.9 °F 33.5 °F 34.0 °F 86% 30.17 in 9.0 mi NNW 5.8 mph - N/A   Clear
11:53 PM 37.9 °F 35.5 °F 34.0 °F 86% 30.19 in 9.0 mi NE 3.5 mph - N/A   Clear